Location: Milano
(45.4670°N, 9.2000°E)
Time: 21:04:59
(UTC+02:00)

ISS - Pass Details

Date: 23 May 2021
Orbit: 417 x 422 km, 51.6° (Epoch: 14 June)

Event Time Altitude Azimuth Distance (km) Brightness Sun altitude
Rises 22:09:06 0° 287° (WNW) 2,365 1.3 -10.9°
Reaches altitude 10° 22:11:24 10° 300° (WNW) 1,502 0.4 -11.2°
Maximum altitude 22:14:21 27° 1° (N) 841 -1.7 -11.5°
Drops below altitude 10° 22:17:17 10° 62° (ENE) 1,504 -1.1 -11.9°
Enters shadow 22:19:17 - 74° (ENE) 2,247 -0.3 -12.1°
